Terminal Aerodrome Forecast
Issued by NWS

Home | Current Version | Previous Version | Text Only | Print | Product List | Glossary On
Versions: 1 2 3 4 5 6 7 8 9 10 11 12 13 14 15 16 17 18 19 20 21 22 23 24 25 26
608
FTPQ31 PGUM 132335
TAFGUM
TAF

TAF
PTRO 132335Z 1400/1424 08012G22KT P6SM FEW018 FEW050
     FM140800 07011KT P6SM VCSH FEW018 SCT050=

USA.gov is the U.S. government's official web portal to all federal, state and local government web resources and services.